Location: San Antonio
(29.4240°N, 98.4930°W)
Time: 08:08:24
(UTC-05:00)

Tiangong - Visible Passes

Search period start: 18 June 2024 00:00
Search period end: 28 June 2024 00:00
Orbit: 379 x 384 km, 41.5° (Epoch: 18 June)

Date Brightness Start Highest point End Pass type
(mag) Time Alt. Az. Time Alt. Az. Time Alt. Az.
18 Jun -1.9 21:30:33 10° NW 21:33:40 60° NNE 21:35:42 19° ESE visible
19 Jun -0.8 22:06:52 10° W 22:09:36 27° SW 22:09:58 26° SSW visible
20 Jun -1.9 21:05:49 10° WNW 21:08:56 63° SW 21:12:02 10° SE visible
21 Jun 0.4 21:42:57 10° WSW 21:44:36 13° SW 21:46:14 10° S visible
